Other Public Products
Issued by NWS Grand Forks, ND

Home | Current Version | Previous Version | Graphics & Text | Print | Product List | Glossary On
Versions: 1 2 3 4 5 6 7 8 9 10 11 12 13 14 15 16 17 18 19 20 21 22 23 24 25 26 27 28 29 30 31 32 33 34 35 36 37 38 39 40 41 42 43 44 45 46 47 48 49 50
000
FPUS83 KFGF 301610
OPUFGF
PRAIRIE TO PINES WEATHER ROUNDUP
NATIONAL WEATHER SERVICE EASTERN NORTH DAKOTA/GRAND FORKS ND
1100 AM CDT SAT AUG 30 2014

 **SATELLITE DATA USED TO AUGMENT SKY COVER AT AUTOMATED STATIONS**
 *****  WEATHER ACROSS EASTERN NORTH DAKOTA  *****

CITY           SKY/WX    TMP DP  RH WIND       PRES   REMARKS
GRAND FORKS    MOSUNNY   63  55  75 NE3       29.92F
GRAND FORKS AF SUNNY     62  56  80 VRB2      29.94F
GRAND CITY NWS   N/A     64 N/A N/A E6          N/A
BUXTON         NOT AVBL
DEVILS LAKE    MOSUNNY   61  48  63 SE7       29.94S
FARGO          CLOUDY    59  55  87 N8        29.92S
WAHPETON ARPT  CLOUDY    59  54  82 NW7       29.92R
$$

 *****  WEATHER ACROSS CENTRAL AND WESTERN NORTH DAKOTA  *****

CITY           SKY/WX    TMP DP  RH WIND       PRES   REMARKS
JAMESTOWN      SUNNY     61  54  77 VRB3      29.94F
BISMARCK       SUNNY     61  56  83 SE9       29.93F
MINOT          SUNNY     64  51  62 S15       29.89F
MINOT AFB      SUNNY     63  53  70 SE17      29.89F
GARRISON         N/A     63  52  67 SE10      29.91F
WILLISTON      SUNNY     68  55  63 S14       29.82F
DICKINSON      SUNNY     63  54  72 SE21      29.85F
HETTINGER      MOSUNNY   64  54  69 SE18      29.89F
$$

 *****  OTHER OBSERVATIONS NORTHEAST NORTH DAKOTA  *****

CITY           SKY/WX    TMP DP  RH WIND       PRES   REMARKS
WALHALLA         N/A     59  54  82 SE6       29.95F
LANGDON        FAIR      63  46  55 SE10      29.95S
CAVALIER       FAIR      61  52  72 NE3       29.95S
GRAFTON        FAIR      61  54  77 CALM      29.94S
CANDO          FAIR      59  50  72 S10       29.96F
FORT TOTTEN    NOT AVBL
ROLLA          FAIR      57  48  72 S9        29.96F
RUGBY          FAIR      59  48  67 SE8       29.94F
 ***** THE ABOVE OBSERVATIONS ARE NON NWS ARE NOT QUALITY
        CONTROLLED AND MAY MIS-REPORT RAIN FOR SNOW...
$$

 *****  OTHER OBSERVATIONS SOUTHEAST NORTH DAKOTA *****

CITY           SKY/WX    TMP DP  RH WIND       PRES   REMARKS
COOPERSTOWN    NOT AVBL
VALLEY CITY    FAIR      63  57  82 NE8       29.93F
OAKES            N/A     63  57  82 N7        29.94S
GWINNER        MOSUNNY   63  57  82 N5        29.94S
BUFFALO        NOT AVBL
WYNDMERE       NOT AVBL
 ***** THE ABOVE OBSERVATIONS ARE NON NWS ARE NOT QUALITY
       CONTROLLED AND MAY MIS-REPORT RAIN FOR SNOW...
$$

  *****  WEATHER ACROSS NORTHERN MINNESOTA  *****

CITY           SKY/WX    TMP DP  RH WIND       PRES   REMARKS
FLAG ISLAND    CLOUDY    57  52  82 NE5       29.95R
WARROAD        MOSUNNY   63  57  82 E7        29.95R
ROSEAU         MOSUNNY   64  55  72 E7        29.93F
HALLOCK        SUNNY     64  54  68 E5        29.93F
THF RVR FALLS  PTSUNNY   61  55  82 NE8       29.93F
HALSTAD          N/A     62  55  80 NE6         N/A
FOSSTON        CLOUDY    63  55  77 NE9       29.93R
BAUDETTE       PTSUNNY   61  52  72 NE5       29.94S
WASKISH        CLOUDY    61  55  82 NE6       29.93S
CROOKSTON      SUNNY     61  54  77 E8        29.93F
$$
  *****  WEATHER ACROSS CENTRAL AND WEST MINNESOTA  *****

CITY           SKY/WX    TMP DP  RH WIND       PRES   REMARKS
BEMIDJI        CLOUDY    59  54  84 NE10      29.92R
PARK RAPIDS    CLOUDY    60  56  86 NE6       29.91R
WADENA         CLOUDY    61  57  88 E5        29.90R
DETROIT LAKES  CLOUDY    63  57  82 NE5       29.92S
MOORHEAD       CLOUDY    61  61 100 N6        29.93R
FERGUS FALLS   CLOUDY    61  57  88 NW8       29.90S
ELBOW LAKE     CLOUDY    63  59  88 W8        29.91R
MORRIS MN      CLOUDY    63  61  94 NW9       29.90R FOG
STAPLES        CLOUDY    61  57  88 N6        29.90R
WHEATON        CLOUDY    61  55  82 NW7       29.94R
$$
  *****  WEATHER ELSEWHERE ACROSS MINNESOTA  *****

CITY           SKY/WX    TMP DP  RH WIND       PRES   REMARKS
DULUTH         CLOUDY    64  60  87 NE6       29.87R
INTRNTL FALLS  PTSUNNY   65  54  67 NE9       29.92F
ELY            CLOUDY    59  55  88 N3        29.90R
CLOQUET        CLOUDY    64  61  88 N5        29.88R
BRAINERD       LGT RAIN  61  61 100 N8        29.89S FOG
HIBBING        NOT AVBL
ALEXANDRIA     CLOUDY    64  60  87 N5        29.91R
SAINT CLOUD    LGT RAIN  70  63  78 NE5       29.87R
MINNEAPOLIS    MOSUNNY   72  62  71 N10       29.85R
$$

  *****  WEATHER ACROSS SOUTH DAKOTA  *****

CITY           SKY/WX    TMP DP  RH WIND       PRES   REMARKS
SIOUX FALLS    CLOUDY    65  61  87 NW8       29.94R
BROOKINGS      NOT AVBL
WATERTOWN      CLOUDY    61  57  87 NW7       29.93S
HURON          CLOUDY    62  56  80 CALM      29.95R
SISSETON         N/A     64  57  78 N7        29.91S
ABERDEEN       MOSUNNY   61  56  83 NE5       29.94S
MITCHELL       CLOUDY    63  58  83 NW6       29.96S
PIERRE         MOSUNNY   63  57  81 SE7       29.94F
MOBRIDGE       MOSUNNY   62  57  83 SE8       29.93S
RAPID CITY     SUNNY     68  57  68 SE15      29.88F
$$

  *****  SOME WEATHER IN NEARBY STATES *****

CITY           SKY/WX    TMP DP  RH WIND       PRES   REMARKS
GLASGOW MT     LGT RAIN  59  56  89 SE7       29.77R
GREAT FALLS MT CLOUDY    66  43  43 SW16G22   29.81S
CHEYENNE WY    SUNNY     72  41  32 S15       30.09F
SCOTTSBLUFF NE SUNNY     74  54  49 SE9       29.96F
OMAHA NE       CLOUDY    68  65  90 N7        29.96R FOG
DES MOINES IA  PTSUNNY   75  66  73 NW9       29.90R
DAVENPORT IA   PTSUNNY   74  67  78 W14       29.88R
CHICAGO IL     CLOUDY    76  66  71 SW17      29.86R
EAU CLAIRE WI  NOT AVBL
LA CROSSE WI   CLOUDY    72  67  84 NW9       29.80R
$$

  *****  SOME NATIONAL WEATHER *****

CITY           SKY/WX    TMP DP  RH WIND       PRES   REMARKS
LA GUARDIA NY  MOSUNNY   77  57  50 S14G22    30.24F
RALEIGH NC     MOSUNNY   83  72  69 CALM      30.23S
ATLANTA GA     PTSUNNY   84  72  67 VRB5      30.17S
NEW ORLEANS LA LGT RAIN  77  72  84 S12       30.03S
OKLAHOMA CITY  MOSUNNY   86  67  52 NW8       29.97S
ALBUQUERQUE NM PTSUNNY   74  42  31 CALM      30.20S
SALT LAKE CITY CLOUDY    75  45  34 S9        29.93F
LOS ANGELES CA PTSUNNY   71  64  78 S3        29.85R
BOISE ID       PTSUNNY   66  43  43 NW9       29.92S
SEATTLE WA     CLOUDY    60  57  89 CALM      29.93S
$$

*** WEATHER ACROSS MANITOBA...SASKATCHEWAN AND ONTARIO ***
                ***ONTARIO***

CITY           SKY/WX    TMP DP  RH WIND       PRES   REMARKS
GERALDTON      CLOUDY    61  54  77 NE8       29.89S
THUNDER BAY    PTSUNNY   64  59  82 NE9       29.87R
SIOUX LOOKOUT  PTSUNNY   63  52  67 NE5       29.95S
TORONTO        PTSUNNY   77  66  69 S9        30.00F
BIG TROUT LK   MOSUNNY   55  37  50 NW9       29.96S
PICKLE LAKE    PTSUNNY   55  46  71 NE5       29.97S
DRYDEN         SUNNY     61  54  77 NE8       29.95S
KENORA         PTSUNNY   55  54  94 E6        29.97S
$$
                *** MANITOBA***

CITY           SKY/WX    TMP DP  RH WIND       PRES   REMARKS
BRANDON        MOSUNNY   61  48  63 SE12G18   29.92F
DAUPHIN        SUNNY     64  52  63 SE6       29.89F
ISLAND LAKE    MOSUNNY   57  43  58 CALM      29.97F
PILOT MOUND      N/A     61  48  63 SE9         N/A
THE PAS        PTSUNNY   63  50  63 S16G24    29.81F
THOMPSON       PTSUNNY   59  45  58 SE6       29.89F
WINNIPEG       MOSUNNY   63  48  59 SE6       29.95F
LYNN LAKE      SUNNY     59  43  55 MISG      29.83F
CHURCHILL      MOSUNNY   54  39  58 NW16      29.82F
GILLAM         PTSUNNY   57  43  58 W12G18    29.90F
$$
                ***SASKATCHEWAN***

CITY           SKY/WX    TMP DP  RH WIND       PRES   REMARKS
ESTEVAN        NOT AVBL
KINDERSLEY     MOSUNNY   61  54  77 NW14G21   29.64R
LLOYDMINSTER   CLOUDY    57  52  82 W16G23    29.64S
PRINCE ALBERT  PTSUNNY   57  54  88 S9G18     29.62S
REGINA         LGT RAIN  59  55  88 SE14      29.73S
YORKTON        SUNNY     63  52  67 S13G21    29.80F


USA.gov is the U.S. government's official web portal to all federal, state and local government web resources and services.